This is the latest recevied weather packets stored in our database for station/object VK3XEM-13. If no packets are shown the sender has not sent any weather packets the latest 10 day(s).
| Time | Temp. | Humidity | Pressure | Rain* | Wind** | Luminosity | Snow |
|---|---|---|---|---|---|---|---|
| 1777804334 | 13.89° C | 76% | 1011.7 hPa | 0 mm | - | 0 W/m² | - |
| 1777803435 | 14.44° C | 76% | 1011.4 hPa | 0 mm | - | 0 W/m² | - |
| 1777802535 | 14.44° C | 76% | 1011.4 hPa | 0 mm | - | 0 W/m² | - |
| 1777801634 | 14.44° C | 76% | 1011 hPa | 0 mm | - | 0 W/m² | - |
| 1777800735 | 13.89° C | 77% | 1011 hPa | 0 mm | - | 0 W/m² | - |
| 1777799835 | 13.89° C | 78% | 1011 hPa | 0 mm | - | 0 W/m² | - |
| 1777798934 | 13.89° C | 79% | 1011 hPa | 0 mm | - | 0 W/m² | - |
| 1777798034 | 13.89° C | 78% | 1010.7 hPa | 0 mm | - | 0 W/m² | - |
| 1777797134 | 13.89° C | 78% | 1009.7 hPa | 0 mm | - | 0 W/m² | - |
| 1777796235 | 14.44° C | 78% | 1009.7 hPa | 0 mm | - | 0 W/m² | - |
| 1777795335 | 15° C | 77% | 1009.7 hPa | 0 mm | - | 0 W/m² | - |
| 1777794434 | 15.56° C | 69% | 1009.7 hPa | 0 mm | - | 0 W/m² | - |
| 1777793534 | 16.11° C | 72% | 1009.3 hPa | 0 mm | - | 4 W/m² | - |
| 1777792634 | 16.67° C | 78% | 1009.3 hPa | 0 mm | - | 15 W/m² | - |
| 1777791734 | 17.22° C | 78% | 1009 hPa | 0 mm | - | 36 W/m² | - |
| 1777790834 | 16.67° C | 82% | 1009.3 hPa | 0 mm | - | 38 W/m² | - |
| 1777789934 | 16.67° C | 82% | 1009 hPa | 0 mm | - | 43 W/m² | - |
| 1777789035 | 16.11° C | 84% | 1008.7 hPa | 0.25 mm | - | 34 W/m² | - |
| 1777788134 | 16.11° C | 84% | 1008.7 hPa | 0.51 mm | - | 32 W/m² | - |
| 1777787234 | 16.11° C | 85% | 1009 hPa | 0.76 mm | - | 37 W/m² | - |
| 1777786334 | 16.11° C | 87% | 1009 hPa | 0.76 mm | - | 52 W/m² | - |
| 1777785434 | 16.11° C | 87% | 1009 hPa | 0.51 mm | - | 16 W/m² | - |
| 1777784535 | 18.33° C | 85% | 1009 hPa | 0.25 mm | - | 25 W/m² | - |
| 1777783635 | 18.33° C | 84% | 1008.3 hPa | 0 mm | - | 27 W/m² | - |
| 1777782735 | 18.33° C | 84% | 1008.3 hPa | 0 mm | - | 53 W/m² | - |
* Rain latest hour (hover to see other rain measurements)
** Current wind speed in m/s (hover to see current wind gust speed)